Weather History for Point Lay, AK

Change the Weather History Date:

Sunday, February 5, 2012

  Actual Average Record
Temperature  
Mean Temperature -6 °F -  
Max Temperature 6 °F -9 °F 25 °F (2014)
Min Temperature -18 °F -20 °F -36 °F (2004)
Degree Days  
Heating Degree Days 71    
Moisture  
Dew Point -12 °F    
Average Humidity 80    
Maximum Humidity 92    
Minimum Humidity 70    
Precipitation  
Precipitation 0.00 in - - ()
Sea Level Pressure  
Sea Level Pressure 29.78 in    
Wind  
Wind Speed 20 mph (NE)    
Max Wind Speed 24 mph    
Max Gust Speed -    
Visibility 2 miles    
Events Snow    
Averages and records for this station are not official NWS values.
T = Trace of Precipitation, MM = Missing Value Source: NWS Daily Summary

Daily Weather History Graph

Daily Weather History Graph

Search for Another Location

Airport:

Trip Planner

Search our weather history database for the weather conditions in past years. The results will help you decide how hot, cold, wet, or windy it might be!

Date:

Astronomy

Feb. 05, 2012 Rise Set
Actual Time 11:12 AM AKST 5:00 PM AKST
Civil Twilight 9:55 AM AKST 6:18 PM AKST
Nautical Twilight 8:40 AM AKST 7:33 PM AKST
Astronomical Twilight 7:30 AM AKST 8:43 PM AKST
Moon 2:07 PM AKST (2/5) 10:43 AM AKST (2/5)
Length of Visible Light 8h 22m
Length of Day
5h 47m
Waxing Gibbous, 95% of the Moon is Illuminated
Feb 5
Waxing Gibbous
Feb 7
Full
Feb 14
Last Quarter
Feb 21
New
Feb 29
First Quarter

Hourly Weather History & Observations

Time (AKST) Temp. Windchill Dew Point Humidity Pressure Visibility Wind Dir Wind Speed Gust Speed Precip Events Conditions
12:40 AM -18.4 °F -47.1 °F -25.6 °F 70% 29.79 in 2.0 mi NE 21.9 mph - 0.00 in Snow Light Snow
12:56 AM -17.9 °F -45.8 °F -24.0 °F 74% 29.80 in 2.0 mi NNE 20.7 mph - 0.00 in Snow Light Snow
1:28 AM -18.4 °F -47.7 °F -23.8 °F 76% 29.80 in 1.5 mi NE 23.0 mph - 0.00 in Snow Light Snow
1:56 AM -17.9 °F -46.4 °F -24.0 °F 74% 29.81 in - NE 21.9 mph - 0.00 in Snow Light Snow
2:56 AM -17.0 °F -45.2 °F -22.9 °F 74% 29.81 in - NE 21.9 mph - 0.00 in   Overcast
3:03 AM -16.6 °F -45.3 °F -23.8 °F 70% 29.79 in 1.8 mi NE 23.0 mph - N/A   Haze
3:47 AM -16.6 °F -44.8 °F -23.8 °F 70% 29.80 in 2.0 mi NE 21.9 mph - 0.00 in   Haze
3:56 AM -17.0 °F -43.3 °F -22.0 °F 78% 29.83 in 1.8 mi NE 18.4 mph - 0.00 in   Haze
4:04 AM -16.6 °F -44.8 °F -22.0 °F 76% 29.81 in - NE 21.9 mph - N/A   Overcast
4:56 AM -15.9 °F -43.8 °F -22.0 °F 74% 29.81 in - NE 21.9 mph - N/A   Overcast
5:56 AM -15.0 °F -42.6 °F -19.8 °F 79% 29.82 in - NE 21.9 mph - N/A   Overcast
6:56 AM -13.9 °F -41.7 °F -18.9 °F 78% 29.82 in - NE 23.0 mph - N/A   Overcast
7:56 AM -15.9 °F -44.9 °F -20.9 °F 78% 29.82 in - NE 24.2 mph - N/A   Overcast
8:56 AM -15.9 °F -42.6 °F -20.9 °F 78% 29.83 in - NE 19.6 mph - N/A   Overcast
9:56 AM -15.0 °F -40.0 °F -19.8 °F 79% 29.83 in - NNE 17.3 mph - N/A   Overcast
10:56 AM -10.8 °F -34.7 °F -17.0 °F 74% 29.83 in - NNE 17.3 mph - N/A   Overcast
11:38 AM -9.4 °F -32.8 °F -14.8 °F 77% 29.81 in - NNE 17.3 mph - N/A   Mostly Cloudy
11:56 AM -8.9 °F -31.4 °F -13.9 °F 79% 29.83 in - NNE 16.1 mph - N/A   Mostly Cloudy
12:05 PM -7.6 °F -29.8 °F -13.0 °F 77% 29.81 in - NE 16.1 mph - N/A   Mostly Cloudy
12:17 PM -7.6 °F -29.1 °F -11.2 °F 84% 29.80 in - NNE 15.0 mph - N/A   Mostly Cloudy
12:56 PM -6.0 °F -27.0 °F -10.8 °F 79% 29.82 in - NNE 15.0 mph - N/A   Mostly Cloudy
1:56 PM -6.0 °F -27.0 °F -9.9 °F 83% 29.81 in - NNE 15.0 mph - N/A   Clear
2:56 PM -4.0 °F -25.8 °F -8.0 °F 83% 29.80 in - NE 17.3 mph - 0.00 in Snow Light Snow
3:56 PM -2.9 °F -24.4 °F -6.9 °F 83% 29.78 in - NNE 17.3 mph - 0.00 in   Clear
4:56 PM 1.0 °F -20.4 °F -2.9 °F 83% 29.74 in - NNE 19.6 mph - 0.00 in Snow Light Snow
5:56 PM 1.4 °F -19.9 °F -2.2 °F 85% 29.73 in - NE 19.6 mph - N/A   Clear
6:56 PM 3.0 °F -17.8 °F -0.9 °F 84% 29.72 in - NE 19.6 mph - N/A   Clear
7:56 PM 4.1 °F -15.3 °F 1.0 °F 87% 29.71 in - NNE 17.3 mph - N/A   Clear
8:56 PM 5.0 °F -14.2 °F 1.0 °F 84% 29.72 in - ENE 17.3 mph - 0.00 in Snow Light Snow
9:48 PM 6.8 °F -13.4 °F 1.4 °F 79% 29.68 in - ENE 20.7 mph - 0.00 in Snow Light Snow
9:56 PM 5.0 °F -15.2 °F 2.1 °F 88% 29.68 in - NE 19.6 mph - 0.00 in Snow Light Snow
10:56 PM 5.0 °F -16.2 °F 1.0 °F 84% 29.70 in - ENE 21.9 mph - 0.00 in   Clear
11:05 PM 5.0 °F -14.7 °F 1.4 °F 85% 29.68 in - ENE 18.4 mph - N/A   Mostly Cloudy
11:45 PM 3.2 °F -18.1 °F 1.4 °F 92% 29.67 in 1.2 mi ENE 20.7 mph - N/A   Overcast
11:56 PM 4.1 °F -16.4 °F 1.0 °F 87% 29.70 in 1.0 mi ENE 19.6 mph - N/A   Overcast